When you browse on this site, cookies collect data to enhance your experience and personalize the content and advertising you see.
Visit our Privacy Policy to learn more. By continuing to use the site, you agree to this use of cookies and data.
EN

Hourly Weather Goes

Today, 22 September, Tuesday

Time Temperature Precipitation Wind Pressure Humidity
00:00 +15°C° 0 mm 1 mps 760 mmHg 82%
01:00 +15°C° 0 mm 1 mps 760 mmHg 82%
02:00 +13°C° 0 mm 0 mps 759 mmHg 82%
03:00 +13°C° 0 mm 0 mps 759 mmHg 82%
04:00 +13°C° 0 mm 0 mps 759 mmHg 83%
05:00 +14°C° 0 mm 1 mps 759 mmHg 83%
06:00 +14°C° 0 mm 1 mps 759 mmHg 84%
07:00 +16°C° 0 mm 1 mps 758 mmHg 77%
08:00 +17°C° 0 mm 2 mps 758 mmHg 70%
09:00 +19°C° 0 mm 2 mps 758 mmHg 63%
10:00 +21°C° 0 mm 2 mps 758 mmHg 58%
11:00 +23°C° 0 mm 2 mps 757 mmHg 52%
12:00 +24°C° 0 mm 2 mps 757 mmHg 47%
13:00 +24°C° 0 mm 2 mps 756 mmHg 45%
14:00 +24°C° 0 mm 1 mps 756 mmHg 44%
15:00 +24°C° 0 mm 1 mps 755 mmHg 42%
16:00 +23°C° 0 mm 1 mps 755 mmHg 49%
17:00 +21°C° 0 mm 1 mps 755 mmHg 56%
18:00 +19°C° 0 mm 1 mps 754 mmHg 62%
19:00 +18°C° 0 mm 1 mps 754 mmHg 62%
20:00 +17°C° 0 mm 2 mps 754 mmHg 62%
21:00 +17°C° 0 mm 2 mps 754 mmHg 63%
22:00 +16°C° 0 mm 3 mps 754 mmHg 64%
23:00 +15°C° 0 mm 4 mps 754 mmHg 66%

Tomorrow, 23 September, Wednesday

Time Temperature Precipitation Wind Pressure Humidity
00:00 +15°C° 0 mm 4 mps 753 mmHg 67%
01:00 +14°C° 0 mm 4 mps 753 mmHg 75%
02:00 +14°C° 0 mm 5 mps 753 mmHg 84%
03:00 +14°C° 0 mm 5 mps 753 mmHg 92%
04:00 +14°C° 0 mm 5 mps 753 mmHg 92%
05:00 +14°C° 0 mm 5 mps 753 mmHg 93%
06:00 +14°C° 0 mm 5 mps 753 mmHg 94%
07:00 +15°C° 0 mm 6 mps 753 mmHg 87%
08:00 +17°C° 0 mm 6 mps 752 mmHg 80%
09:00 +20°C° 0 mm 7 mps 752 mmHg 73%
10:00 +20°C° 0.1 mm 7 mps 752 mmHg 71%
11:00 +20°C° 0.1 mm 8 mps 752 mmHg 68%
12:00 +20°C° 0.1 mm 8 mps 752 mmHg 66%
13:00 +20°C° 0.2 mm 7 mps 752 mmHg 67%
14:00 +20°C° 0.2 mm 6 mps 751 mmHg 68%
15:00 +20°C° 0.2 mm 6 mps 751 mmHg 69%
16:00 +19°C° 0.3 mm 5 mps 751 mmHg 73%
17:00 +17°C° 0.3 mm 5 mps 751 mmHg 76%
18:00 +17°C° 0.3 mm 4 mps 750 mmHg 80%
19:00 +16°C° 0.1 mm 5 mps 750 mmHg 81%
20:00 +15°C° 0.1 mm 5 mps 750 mmHg 83%
21:00 +15°C° 0.1 mm 5 mps 749 mmHg 85%
22:00 +15°C° 1.4 mm 6 mps 749 mmHg 86%
23:00 +15°C° 1.4 mm 7 mps 749 mmHg 87%

Day after tomorrow, 24 September, Thursday

Time Temperature Precipitation Wind Pressure Humidity
00:00 +15°C° 1.4 mm 8 mps 749 mmHg 88%
01:00 +13°C° 0.3 mm 8 mps 749 mmHg 84%
02:00 +12°C° 0.3 mm 8 mps 749 mmHg 81%
03:00 +11°C° 0.3 mm 8 mps 750 mmHg 77%
04:00 +11°C° 0 mm 8 mps 750 mmHg 79%
05:00 +10°C° 0 mm 7 mps 751 mmHg 81%
06:00 +9°C° 0 mm 7 mps 751 mmHg 83%
07:00 +11°C° 0 mm 7 mps 751 mmHg 77%
08:00 +12°C° 0 mm 7 mps 751 mmHg 70%
09:00 +14°C° 0 mm 6 mps 751 mmHg 63%
10:00 +15°C° 0 mm 7 mps 751 mmHg 58%
11:00 +16°C° 0 mm 8 mps 750 mmHg 54%
12:00 +17°C° 0 mm 9 mps 750 mmHg 49%
13:00 +16°C° 0 mm 9 mps 750 mmHg 52%
14:00 +16°C° 0 mm 8 mps 749 mmHg 55%
15:00 +16°C° 0 mm 8 mps 749 mmHg 58%
16:00 +15°C° 0.5 mm 8 mps 748 mmHg 66%
17:00 +12°C° 0.5 mm 8 mps 748 mmHg 74%
18:00 +11°C° 0.5 mm 8 mps 748 mmHg 82%
19:00 +11°C° 0.3 mm 7 mps 748 mmHg 82%
20:00 +10°C° 0.3 mm 7 mps 748 mmHg 83%
21:00 +10°C° 0.3 mm 7 mps 748 mmHg 83%
22:00 +10°C° 0.3 mm 7 mps 748 mmHg 84%
23:00 +9°C° 0.3 mm 6 mps 748 mmHg 84%

25 September, Friday

Time Temperature Precipitation Wind Pressure Humidity
00:00 +9°C° 0.3 mm 6 mps 748 mmHg 84%
01:00 +8°C° 0.3 mm 6 mps 748 mmHg 85%
02:00 +8°C° 0.3 mm 6 mps 748 mmHg 85%
03:00 +8°C° 0.3 mm 6 mps 748 mmHg 85%
04:00 +7°C° 0.1 mm 6 mps 748 mmHg 86%
05:00 +7°C° 0.1 mm 6 mps 747 mmHg 86%
06:00 +6°C° 0.1 mm 5 mps 747 mmHg 86%
07:00 +7°C° 0 mm 5 mps 748 mmHg 80%
08:00 +9°C° 0 mm 5 mps 748 mmHg 74%
09:00 +11°C° 0 mm 4 mps 748 mmHg 68%
10:00 +12°C° 0.1 mm 4 mps 748 mmHg 66%
11:00 +12°C° 0.1 mm 4 mps 748 mmHg 64%
12:00 +13°C° 0.1 mm 3 mps 749 mmHg 62%
13:00 +13°C° 0.3 mm 5 mps 749 mmHg 62%
14:00 +13°C° 0.3 mm 6 mps 749 mmHg 62%
15:00 +12°C° 0.3 mm 8 mps 750 mmHg 62%
16:00 +12°C° 0.1 mm 8 mps 750 mmHg 65%
17:00 +11°C° 0.1 mm 8 mps 751 mmHg 68%
18:00 +10°C° 0.1 mm 8 mps 751 mmHg 71%
19:00 +10°C° 0.5 mm 8 mps 752 mmHg 74%
20:00 +10°C° 0.5 mm 8 mps 752 mmHg 77%
21:00 +10°C° 0.5 mm 9 mps 753 mmHg 80%
22:00 +10°C° 1 mm 9 mps 753 mmHg 80%
23:00 +9°C° 1 mm 10 mps 753 mmHg 80%

26 September, Saturday

Time Temperature Precipitation Wind Pressure Humidity
00:00 +9°C° 1 mm 10 mps 753 mmHg 80%
01:00 +9°C° 0.9 mm 10 mps 753 mmHg 78%
02:00 +9°C° 0.9 mm 10 mps 754 mmHg 76%
03:00 +9°C° 0.9 mm 10 mps 754 mmHg 75%
04:00 +9°C° 0.4 mm 10 mps 755 mmHg 74%
05:00 +10°C° 0.4 mm 9 mps 755 mmHg 73%
06:00 +8°C° 0.4 mm 9 mps 756 mmHg 72%
07:00 +10°C° 0.3 mm 9 mps 756 mmHg 70%
08:00 +11°C° 0.3 mm 10 mps 757 mmHg 68%
09:00 +11°C° 0.3 mm 10 mps 757 mmHg 66%
10:00 +12°C° 0.5 mm 11 mps 758 mmHg 65%
11:00 +12°C° 0.5 mm 11 mps 758 mmHg 64%
12:00 +12°C° 0.5 mm 11 mps 758 mmHg 63%
13:00 +12°C° 0.5 mm 11 mps 758 mmHg 64%
14:00 +12°C° 0.5 mm 11 mps 759 mmHg 64%
15:00 +12°C° 0.5 mm 11 mps 759 mmHg 65%
16:00 +11°C° 0.1 mm 10 mps 759 mmHg 67%
17:00 +11°C° 0.1 mm 10 mps 759 mmHg 68%
18:00 +10°C° 0.1 mm 9 mps 760 mmHg 69%
19:00 +10°C° 0 mm 9 mps 760 mmHg 68%
20:00 +10°C° 0 mm 8 mps 760 mmHg 67%
21:00 +11°C° 0 mm 8 mps 760 mmHg 66%
22:00 +10°C° 0.2 mm 8 mps 760 mmHg 67%
23:00 +10°C° 0.2 mm 8 mps 760 mmHg 69%

27 September, Sunday

Time Temperature Precipitation Wind Pressure Humidity
00:00 +9°C° 0.2 mm 8 mps 760 mmHg 70%
01:00 +9°C° 0.2 mm 8 mps 760 mmHg 71%
02:00 +9°C° 0.2 mm 8 mps 760 mmHg 72%
03:00 +9°C° 0.2 mm 8 mps 760 mmHg 72%
04:00 +9°C° 0.1 mm 8 mps 760 mmHg 73%
05:00 +9°C° 0.1 mm 8 mps 760 mmHg 74%
06:00 +9°C° 0.1 mm 8 mps 761 mmHg 75%
07:00 +10°C° 0.1 mm 8 mps 761 mmHg 71%
08:00 +11°C° 0.1 mm 9 mps 761 mmHg 67%
09:00 +12°C° 0.1 mm 9 mps 761 mmHg 63%
10:00 +12°C° 0.1 mm 9 mps 761 mmHg 62%
11:00 +12°C° 0.1 mm 9 mps 761 mmHg 62%
12:00 +12°C° 0.1 mm 9 mps 761 mmHg 61%
13:00 +12°C° 0.1 mm 9 mps 761 mmHg 63%
14:00 +11°C° 0.1 mm 9 mps 762 mmHg 64%
15:00 +11°C° 0.1 mm 9 mps 762 mmHg 66%
16:00 +11°C° 0 mm 8 mps 762 mmHg 66%
17:00 +10°C° 0 mm 7 mps 762 mmHg 65%
18:00 +9°C° 0 mm 7 mps 762 mmHg 65%
19:00 +9°C° 0 mm 6 mps 762 mmHg 66%
20:00 +9°C° 0 mm 6 mps 763 mmHg 67%
21:00 +9°C° 0 mm 6 mps 763 mmHg 68%
22:00 +9°C° 0 mm 6 mps 763 mmHg 69%
23:00 +9°C° 0 mm 6 mps 763 mmHg 69%
Show more